| time (UTC) | temp C | wind direction | speed KPH | gust KPH | rain 1hr cm | rain 24hr cm | rain mn cm | humidity % | barometer mb |
| 20260503224149 | 22 | 282 | 4.8 | 6.4 | 0.00 | 0.00 | 0.00 | 29 | 1001.6 |
| 20260503223647 | 22 | 279 | 3.2 | 3.2 | 0.00 | 0.00 | 0.00 | 28 | 1001.3 |
| 20260503223143 | 22 | 300 | 4.8 | 4.8 | 0.00 | 0.00 | 0.00 | 28 | 1001.3 |
| 20260503222640 | 22 | 314 | 3.2 | 3.2 | 0.00 | 0.00 | 0.00 | 28 | 1001.3 |
| 20260503222138 | 22 | 282 | 3.2 | 3.2 | 0.00 | 0.00 | 0.00 | 30 | 1001.3 |
| 20260503221636 | 22 | 280 | 6.4 | 8.0 | 0.00 | 0.00 | 0.00 | 30 | 1001.6 |
| 20260503221133 | 22 | 202 | 4.8 | 4.8 | 0.00 | 0.00 | 0.00 | 29 | 1001.3 |
| 20260503220630 | 22 | 278 | 4.8 | 4.8 | 0.00 | 0.00 | 0.00 | 29 | 1001.6 |
| 20260503220126 | 22 | 192 | 3.2 | 3.2 | 0.00 | 0.00 | 0.00 | 30 | 1001.6 |
| 20260503215623 | 22 | 294 | 4.8 | 4.8 | 0.00 | 0.00 | 0.00 | 30 | 1001.6 |
| 20260503215120 | 22 | 286 | 4.8 | 4.8 | 0.00 | 0.00 | 0.00 | 29 | 1001.6 |
| 20260503214619 | 22 | 356 | 6.4 | 6.4 | 0.00 | 0.00 | 0.00 | 30 | 1001.6 |
| 20260503214115 | 22 | 258 | 6.4 | 6.4 | 0.00 | 0.00 | 0.00 | 29 | 1001.6 |
| 20260503213614 | 22 | 330 | 8.0 | 9.7 | 0.00 | 0.00 | 0.00 | 30 | 1001.6 |
| 20260503213110 | 22 | 330 | 4.8 | 4.8 | 0.00 | 0.00 | 0.00 | 31 | 1001.6 |
| 20260503212608 | 22 | 260 | 8.0 | 9.7 | 0.00 | 0.00 | 0.00 | 31 | 1001.6 |
| 20260503212104 | 22 | 216 | 3.2 | 3.2 | 0.00 | 0.00 | 0.00 | 30 | 1001.6 |
| 20260503211602 | 22 | 288 | 8.0 | 9.7 | 0.00 | 0.00 | 0.00 | 31 | 1001.6 |
| 20260503211057 | 22 | 192 | 4.8 | 4.8 | 0.00 | 0.00 | 0.00 | 31 | 1001.6 |
| 20260503210554 | 22 | 174 | 6.4 | 8.0 | 0.00 | 0.00 | 0.00 | 31 | 1001.9 |
| 20260503210050 | 22 | 34 | 3.2 | 3.2 | 0.00 | 0.00 | 0.00 | 31 | 1001.9 |
| 20260503205547 | 22 | 240 | 8.0 | 8.0 | 0.00 | 0.00 | 0.00 | 30 | 1001.9 |
| 20260503205043 | 22 | 23 | 3.2 | 3.2 | 0.00 | 0.00 | 0.00 | 32 | 1001.9 |
| 20260503204540 | 22 | 215 | 6.4 | 6.4 | 0.00 | 0.00 | 0.00 | 31 | 1001.9 |
| 20260503204037 | 22 | 136 | 3.2 | 3.2 | 0.00 | 0.00 | 0.00 | 31 | 1001.6 |
| 20260503203534 | 21 | 269 | 1.6 | 1.6 | 0.00 | 0.00 | 0.00 | 32 | 1001.9 |
| 20260503203031 | 21 | 186 | 6.4 | 6.4 | 0.00 | 0.00 | 0.00 | 32 | 1001.9 |
| 20260503202529 | 21 | 228 | 8.0 | 9.7 | 0.00 | 0.00 | 0.00 | 31 | 1002.3 |
| 20260503202027 | 21 | 298 | 4.8 | 4.8 | 0.00 | 0.00 | 0.00 | 32 | 1002.3 |
| 20260503201525 | 21 | 138 | 4.8 | 6.4 | 0.00 | 0.00 | 0.00 | 31 | 1002.3 |
| 20260503201022 | 21 | 288 | 3.2 | 3.2 | 0.00 | 0.00 | 0.00 | 31 | 1002.3 |
| 20260503200518 | 22 | 264 | 3.2 | 3.2 | 0.00 | 0.00 | 0.00 | 32 | 1002.3 |
| 20260503200015 | 22 | 144 | 3.2 | 3.2 | 0.00 | 0.00 | 0.00 | 32 | 1002.3 |
| 20260503195512 | 21 | 291 | 3.2 | 3.2 | 0.00 | 0.00 | 0.00 | 32 | 1002.3 |
| 20260503195009 | 21 | 144 | 8.0 | 9.7 | 0.00 | 0.00 | 0.00 | 32 | 1002.6 |
| 20260503194506 | 21 | 136 | 6.4 | 6.4 | 0.00 | 0.00 | 0.00 | 33 | 1002.6 |
| 20260503194000 | 21 | 275 | 6.4 | 6.4 | 0.00 | 0.00 | 0.00 | 32 | 1002.9 |
| 20260503193457 | 20 | 115 | 4.8 | 4.8 | 0.00 | 0.00 | 0.00 | 33 | 1002.9 |
| 20260503192952 | 21 | 204 | 6.4 | 6.4 | 0.00 | 0.00 | 0.00 | 34 | 1002.6 |
| 20260503192449 | 21 | 48 | 3.2 | 3.2 | 0.00 | 0.00 | 0.00 | 31 | 1002.9 |
| 20260503191944 | 20 | 320 | 4.8 | 4.8 | 0.00 | 0.00 | 0.00 | 32 | 1002.9 |
| 20260503191442 | 20 | 162 | 8.0 | 9.7 | 0.00 | 0.00 | 0.00 | 33 | 1003.3 |
| 20260503190938 | 20 | 189 | 6.4 | 8.0 | 0.00 | 0.00 | 0.00 | 35 | 1002.9 |
| 20260503190436 | 20 | 276 | 4.8 | 4.8 | 0.00 | 0.00 | 0.00 | 35 | 1002.9 |
| 20260503185933 | 20 | 314 | 3.2 | 3.2 | 0.00 | 0.00 | 0.00 | 35 | 1002.9 |
| 20260503185429 | 20 | 174 | 8.0 | 9.7 | 0.00 | 0.00 | 0.00 | 34 | 1003.3 |
| 20260503184928 | 20 | 144 | 8.0 | 9.7 | 0.00 | 0.00 | 0.00 | 34 | 1003.3 |
| 20260503184425 | 20 | 168 | 4.8 | 6.4 | 0.00 | 0.00 | 0.00 | 34 | 1003.3 |
| 20260503183922 | 19 | 168 | 4.8 | 4.8 | 0.00 | 0.00 | 0.00 | 34 | 1003.3 |
| 20260503183418 | 19 | 320 | 3.2 | 3.2 | 0.00 | 0.00 | 0.00 | 36 | 1003.3 |
| 20260503182915 | 19 | 278 | 4.8 | 4.8 | 0.00 | 0.00 | 0.00 | 34 | 1003.6 |
| 20260503182414 | 19 | 331 | 3.2 | 3.2 | 0.00 | 0.00 | 0.00 | 34 | 1003.6 |
| 20260503181911 | 19 | 172 | 8.0 | 9.7 | 0.00 | 0.00 | 0.00 | 34 | 1003.6 |
| 20260503181408 | 19 | 216 | 3.2 | 3.2 | 0.00 | 0.00 | 0.00 | 35 | 1003.6 |
| 20260503180904 | 19 | 350 | 4.8 | 6.4 | 0.00 | 0.00 | 0.00 | 35 | 1003.6 |
| 20260503180403 | 18 | 132 | 6.4 | 6.4 | 0.00 | 0.00 | 0.00 | 35 | 1003.6 |
| 20260503175858 | 18 | 60 | 4.8 | 6.4 | 0.00 | 0.00 | 0.00 | 35 | 1004.0 |
| 20260503175357 | 19 | 124 | 6.4 | 8.0 | 0.00 | 0.00 | 0.00 | 33 | 1004.0 |
| 20260503174857 | 18 | 162 | 3.2 | 3.2 | 0.00 | 0.00 | 0.00 | 35 | 1004.0 |
| 20260503174356 | 18 | 269 | 8.0 | 8.0 | 0.00 | 0.00 | 0.00 | 36 | 1004.0 |
| 20260503173856 | 19 | 318 | 6.4 | 8.0 | 0.00 | 0.00 | 0.00 | 34 | 1004.0 |
| 20260503173353 | 18 | 116 | 3.2 | 3.2 | 0.00 | 0.00 | 0.00 | 34 | 1004.0 |
| 20260503172850 | 18 | 162 | 4.8 | 6.4 | 0.00 | 0.00 | 0.00 | 37 | 1004.0 |
| 20260503172348 | 18 | 222 | 8.0 | 9.7 | 0.00 | 0.00 | 0.00 | 35 | 1004.0 |
| 20260503171843 | 18 | 118 | 8.0 | 9.7 | 0.00 | 0.00 | 0.00 | 38 | 1004.0 |
| 20260503171340 | 18 | 174 | 9.7 | 9.7 | 0.00 | 0.00 | 0.00 | 36 | 1004.3 |
| 20260503170838 | 18 | 276 | 4.8 | 6.4 | 0.00 | 0.00 | 0.00 | 37 | 1004.3 |
| 20260503170334 | 17 | 270 | 3.2 | 3.2 | 0.00 | 0.00 | 0.00 | 37 | 1004.3 |
| 20260503150727 | 16 | 179 | 8.0 | 8.0 | 0.00 | 0.00 | 0.00 | 41 | 1005.8 |
| 20260503150223 | 16 | 132 | 8.0 | 8.0 | 0.00 | 0.00 | 0.00 | 41 | 1005.8 |
| 20260503140147 | 14 | 145 | 6.4 | 6.4 | 0.00 | 0.00 | 0.00 | 48 | 1006.1 |
| 20260503131116 | 13 | 194 | 8.0 | 9.7 | 0.00 | 0.00 | 0.00 | 52 | 1006.4 |
| 20260503130614 | 13 | 210 | 9.7 | 11.3 | 0.00 | 0.00 | 0.00 | 51 | 1006.8 |
| 20260503130112 | 13 | 176 | 8.0 | 8.0 | 0.00 | 0.00 | 0.00 | 50 | 1006.8 |
| 20260503110504 | 10 | 169 | 1.6 | 1.6 | 0.00 | 0.00 | 0.00 | 49 | 1007.5 |
| 20260503090355 | 11 | 195 | 3.2 | 3.2 | 0.00 | 0.00 | 0.00 | 42 | 1008.1 |
| 20260503081323 | 11 | 166 | 6.4 | 6.4 | 0.00 | 0.00 | 0.00 | 40 | 1008.9 |
| 20260503080819 | 11 | 182 | 0.0 | 0.0 | 0.00 | 0.00 | 0.00 | 41 | 1008.9 |
| 20260503080317 | 11 | 183 | 0.0 | 0.0 | 0.00 | 0.00 | 0.00 | 41 | 1008.6 |
| 20260503072753 | 11 | 192 | 1.6 | 1.6 | 0.00 | 0.00 | 0.00 | 40 | 1008.6 |
| 20260503072250 | 10 | 282 | 3.2 | 3.2 | 0.00 | 0.00 | 0.00 | 39 | 1008.9 |
| 20260503071746 | 10 | 185 | 3.2 | 3.2 | 0.00 | 0.00 | 0.00 | 40 | 1008.9 |
| 20260503071243 | 10 | 167 | 1.6 | 1.6 | 0.00 | 0.00 | 0.00 | 40 | 1008.9 |
| 20260503070740 | 10 | 156 | 0.0 | 0.0 | 0.00 | 0.00 | 0.00 | 41 | 1008.9 |
| 20260503070238 | 10 | 179 | 0.0 | 0.0 | 0.00 | 0.00 | 0.00 | 40 | 1009.2 |
| 20260503060209 | 10 | 111 | 0.0 | 0.0 | 0.00 | 0.00 | 0.00 | 41 | 1009.6 |
| 20260503054655 | 10 | 185 | 3.2 | 3.2 | 0.00 | 0.00 | 0.00 | 39 | 1009.6 |
| 20260503054153 | 11 | 192 | 1.6 | 1.6 | 0.00 | 0.00 | 0.00 | 40 | 1009.6 |
| 20260503053651 | 11 | 234 | 0.0 | 0.0 | 0.00 | 0.00 | 0.00 | 40 | 1009.9 |
| 20260503053149 | 11 | 237 | 1.6 | 1.6 | 0.00 | 0.00 | 0.00 | 39 | 1009.9 |
| 20260503052645 | 11 | 237 | 3.2 | 3.2 | 0.00 | 0.00 | 0.00 | 39 | 1009.6 |
| 20260503052141 | 11 | 265 | 4.8 | 6.4 | 0.00 | 0.00 | 0.00 | 38 | 1009.9 |
| 20260503051637 | 11 | 122 | 1.6 | 1.6 | 0.00 | 0.00 | 0.00 | 39 | 1009.9 |
| 20260503051135 | 11 | 148 | 4.8 | 4.8 | 0.00 | 0.00 | 0.00 | 38 | 1009.9 |
| 20260503050631 | 11 | 102 | 0.0 | 0.0 | 0.00 | 0.00 | 0.00 | 38 | 1009.9 |
| 20260503050128 | 11 | 166 | 3.2 | 3.2 | 0.00 | 0.00 | 0.00 | 39 | 1009.9 |
| 20260503045626 | 11 | 193 | 0.0 | 0.0 | 0.00 | 0.00 | 0.00 | 39 | 1009.9 |
| 20260503045123 | 11 | 120 | 3.2 | 3.2 | 0.00 | 0.00 | 0.00 | 40 | 1009.9 |
| 20260503044619 | 11 | 180 | 3.2 | 3.2 | 0.00 | 0.00 | 0.00 | 39 | 1009.6 |
| 20260503044117 | 11 | 138 | 1.6 | 1.6 | 0.00 | 0.00 | 0.00 | 39 | 1009.9 |
| 20260503043613 | 11 | 84 | 3.2 | 3.2 | 0.00 | 0.00 | 0.00 | 40 | 1010.3 |
| 20260503043110 | 11 | 126 | 3.2 | 3.2 | 0.00 | 0.00 | 0.00 | 39 | 1010.3 |
| 20260503042607 | 11 | 136 | 0.0 | 0.0 | 0.00 | 0.00 | 0.00 | 40 | 1010.3 |
| 20260503042103 | 11 | 174 | 3.2 | 3.2 | 0.00 | 0.00 | 0.00 | 40 | 1010.3 |
| 20260503041559 | 11 | 154 | 3.2 | 3.2 | 0.00 | 0.00 | 0.00 | 41 | 1010.3 |
| 20260503041057 | 11 | 144 | 1.6 | 1.6 | 0.00 | 0.00 | 0.00 | 42 | 1010.6 |
| 20260503040554 | 10 | 171 | 0.0 | 0.0 | 0.00 | 0.00 | 0.00 | 41 | 1010.3 |
| 20260503040051 | 10 | 102 | 1.6 | 1.6 | 0.00 | 0.00 | 0.00 | 41 | 1010.6 |
| 20260503035548 | 10 | 266 | 1.6 | 1.6 | 0.00 | 0.00 | 0.00 | 43 | 1010.6 |
| 20260503035046 | 9 | 265 | 0.0 | 0.0 | 0.00 | 0.00 | 0.00 | 42 | 1010.6 |
| 20260503034543 | 8 | 265 | 0.0 | 0.0 | 0.00 | 0.00 | 0.00 | 45 | 1010.6 |
| 20260503034040 | 8 | 265 | 0.0 | 0.0 | 0.00 | 0.00 | 0.00 | 51 | 1010.6 |
| 20260503033537 | 8 | 265 | 0.0 | 0.0 | 0.00 | 0.00 | 0.00 | 48 | 1010.9 |
| 20260503033035 | 7 | 265 | 0.0 | 0.0 | 0.00 | 0.00 | 0.00 | 49 | 1010.6 |
| 20260503032533 | 6 | 264 | 0.0 | 0.0 | 0.00 | 0.00 | 0.00 | 52 | 1010.9 |
| 20260503032031 | 6 | 265 | 0.0 | 0.0 | 0.00 | 0.00 | 0.00 | 56 | 1010.9 |
| 20260503031528 | 6 | 265 | 0.0 | 0.0 | 0.00 | 0.00 | 0.00 | 56 | 1010.9 |
| 20260503031025 | 6 | 265 | 0.0 | 0.0 | 0.00 | 0.00 | 0.00 | 56 | 1011.3 |
| 20260503030521 | 6 | 265 | 0.0 | 0.0 | 0.00 | 0.00 | 0.00 | 57 | 1010.9 |
| 20260503030019 | 5 | 265 | 0.0 | 0.0 | 0.00 | 0.00 | 0.00 | 56 | 1011.3 |
| 20260503025515 | 5 | 265 | 0.0 | 0.0 | 0.00 | 0.00 | 0.00 | 56 | 1011.3 |
| 20260503025013 | 5 | 264 | 0.0 | 0.0 | 0.00 | 0.00 | 0.00 | 56 | 1010.9 |
| 20260503024509 | 5 | 264 | 0.0 | 0.0 | 0.00 | 0.00 | 0.00 | 57 | 1011.3 |
| 20260503024007 | 5 | 265 | 0.0 | 0.0 | 0.00 | 0.00 | 0.00 | 56 | 1010.9 |
| 20260503023503 | 5 | 265 | 0.0 | 0.0 | 0.00 | 0.00 | 0.00 | 56 | 1010.9 |
| 20260503023000 | 5 | 265 | 0.0 | 0.0 | 0.00 | 0.00 | 0.00 | 56 | 1011.3 |
| 20260503022455 | 6 | 265 | 0.0 | 0.0 | 0.00 | 0.00 | 0.00 | 55 | 1011.3 |
| 20260503021951 | 6 | 265 | 0.0 | 0.0 | 0.00 | 0.00 | 0.00 | 54 | 1011.3 |
| 20260503021448 | 6 | 265 | 0.0 | 0.0 | 0.00 | 0.00 | 0.00 | 54 | 1011.3 |
| 20260503020945 | 6 | 265 | 0.0 | 0.0 | 0.00 | 0.00 | 0.00 | 53 | 1011.3 |
| 20260503020443 | 6 | 265 | 0.0 | 0.0 | 0.00 | 0.00 | 0.00 | 53 | 1011.3 |
| 20260503015939 | 6 | 265 | 0.0 | 0.0 | 0.00 | 0.00 | 0.00 | 53 | 1011.3 |
| 20260503015436 | 6 | 265 | 0.0 | 0.0 | 0.00 | 0.00 | 0.00 | 51 | 1011.3 |
| 20260503014932 | 7 | 265 | 0.0 | 0.0 | 0.00 | 0.00 | 0.00 | 51 | 1010.9 |
| 20260503014429 | 7 | 265 | 0.0 | 0.0 | 0.00 | 0.00 | 0.00 | 51 | 1010.9 |
| 20260503013927 | 7 | 265 | 0.0 | 0.0 | 0.00 | 0.00 | 0.00 | 48 | 1011.3 |
| 20260503013424 | 8 | 265 | 0.0 | 0.0 | 0.00 | 0.00 | 0.00 | 46 | 1010.9 |
| 20260503012921 | 8 | 265 | 0.0 | 0.0 | 0.00 | 0.00 | 0.00 | 43 | 1010.9 |
| 20260503012419 | 9 | 265 | 0.0 | 0.0 | 0.00 | 0.00 | 0.00 | 42 | 1010.9 |
| 20260503011915 | 10 | 265 | 0.0 | 0.0 | 0.00 | 0.00 | 0.00 | 41 | 1010.9 |
| 20260503011412 | 10 | 265 | 0.0 | 0.0 | 0.00 | 0.00 | 0.00 | 39 | 1010.9 |
| 20260503010909 | 11 | 265 | 0.0 | 0.0 | 0.00 | 0.00 | 0.00 | 37 | 1010.9 |
| 20260503010406 | 11 | 265 | 0.0 | 0.0 | 0.00 | 0.00 | 0.00 | 35 | 1010.9 |
| 20260503005903 | 12 | 265 | 0.0 | 0.0 | 0.00 | 0.00 | 0.00 | 34 | 1011.3 |
| 20260503005400 | 12 | 265 | 0.0 | 0.0 | 0.00 | 0.00 | 0.00 | 33 | 1010.9 |
| 20260503004856 | 12 | 232 | 0.0 | 0.0 | 0.00 | 0.00 | 0.00 | 32 | 1011.3 |
| 20260503004354 | 13 | 232 | 0.0 | 0.0 | 0.00 | 0.00 | 0.00 | 32 | 1010.9 |
| 20260503003851 | 13 | 232 | 1.6 | 1.6 | 0.00 | 0.00 | 0.00 | 31 | 1011.3 |
| 20260503003348 | 13 | 240 | 0.0 | 0.0 | 0.00 | 0.00 | 0.00 | 30 | 1010.6 |
| 20260503002845 | 13 | 204 | 3.2 | 3.2 | 0.00 | 0.00 | 0.00 | 31 | 1010.9 |
| 20260503002342 | 14 | 222 | 3.2 | 3.2 | 0.00 | 0.00 | 0.00 | 30 | 1010.9 |
| 20260503001838 | 14 | 277 | 4.8 | 4.8 | 0.00 | 0.00 | 0.00 | 29 | 1010.9 |
| 20260503001335 | 14 | 276 | 3.2 | 3.2 | 0.00 | 0.00 | 0.00 | 30 | 1011.3 |
| 20260503000832 | 15 | 208 | 3.2 | 3.2 | 0.00 | 0.00 | 0.00 | 29 | 1011.3 |
| 20260503000330 | 15 | 252 | 3.2 | 3.2 | 0.00 | 0.00 | 0.00 | 28 | 1011.3 |
| 20260502235827 | 15 | 26 | 3.2 | 3.2 | 0.00 | 0.00 | 0.00 | 28 | 1010.9 |
| 20260502235324 | 15 | 272 | 3.2 | 3.2 | 0.00 | 0.00 | 0.00 | 27 | 1011.3 |
| 20260502234820 | 15 | 184 | 6.4 | 8.0 | 0.00 | 0.00 | 0.00 | 28 | 1011.3 |
| 20260502234317 | 15 | 138 | 3.2 | 3.2 | 0.00 | 0.00 | 0.00 | 27 | 1011.3 |
| 20260502233814 | 16 | 248 | 1.6 | 1.6 | 0.00 | 0.00 | 0.00 | 26 | 1011.3 |
| 20260502233310 | 16 | 283 | 3.2 | 3.2 | 0.00 | 0.00 | 0.00 | 27 | 1011.3 |
| 20260502232807 | 15 | 198 | 1.6 | 1.6 | 0.00 | 0.00 | 0.00 | 27 | 1011.6 |
| 20260502232305 | 15 | 104 | 4.8 | 4.8 | 0.00 | 0.00 | 0.00 | 27 | 1011.3 |
| 20260502231800 | 16 | 184 | 9.7 | 11.3 | 0.00 | 0.00 | 0.00 | 26 | 1011.6 |
| 20260502231258 | 16 | 222 | 3.2 | 3.2 | 0.00 | 0.00 | 0.00 | 25 | 1011.6 |
| 20260502230756 | 16 | 282 | 4.8 | 4.8 | 0.00 | 0.00 | 0.00 | 25 | 1011.6 |
| 20260502230254 | 16 | 265 | 3.2 | 3.2 | 0.00 | 0.00 | 0.00 | 25 | 1011.6 |
| 20260502225750 | 16 | 285 | 3.2 | 3.2 | 0.00 | 0.00 | 0.00 | 26 | 1011.6 |
| 20260502225247 | 16 | 174 | 3.2 | 3.2 | 0.00 | 0.00 | 0.00 | 26 | 1012.1 |
| 20260502224743 | 16 | 320 | 4.8 | 4.8 | 0.00 | 0.00 | 0.00 | 27 | 1011.6 |